User: anonymous   Login
Location: Peebles
(55.6412°N, 3.1714°W)
Time: 07:57:21
(UTC+00:00)
Language:

Cosmos 990 Rocket - Orbit

View from above orbital plane
View from above orbital plane
View from above satellite
View from above satellite

Ground track
Ground track

The orbit data is extracted from the following two-line orbital elements,

1 10677U 78019B   21336.86609593  .00000015  00000-0  13134-4 0  9999
2 10677  74.0363 170.0618 0015738 206.8873 153.1468 14.40212982296780
Epoch (UTC): 02 December 2021 20:47:10
Eccentricity: 0.0015738
inclination: 74.0363°
perigee height: 746 km
apogee height: 769 km
right ascension of ascending node: 170.0618°
argument of perigee: 206.8873°
revolutions per day: 14.40212982
mean anomaly at epoch: 153.1468°
orbit number at epoch: 29678

The dashed part of the orbit path shows where the satellite is in the earth's shadow,  

DLR